GW4449 Weather Reports


time (UTC)temp
C
wind
direction
speed
KPH
gust
KPH
rain 1hr
cm
rain 24hr
cm
rain mn
cm
humidity
%
barometer
mb
20260503203510 32 348 1.6 12.9 0.00 0.00 0.00 26 1011.2
20260503203029 31 38 1.6 4.8 0.00 0.00 0.00 26 1011.3
20260503202508 31 360 0.0 8.0 0.00 0.00 0.00 25 1011.3
20260503202012 31 352 1.6 9.7 0.00 0.00 0.00 26 1011.3
20260503201533 31 360 4.8 14.5 0.00 0.00 0.00 26 1011.4
20260503201004 31 360 6.4 14.5 0.00 0.00 0.00 27 1011.5
20260503200505 31 360 1.6 6.4 0.00 0.00 0.00 28 1011.5
20260503200017 31 329 3.2 8.0 0.00 0.00 0.00 28 1011.7
20260503195507 31 317 3.2 8.0 0.00 0.00 0.00 30 1011.6
20260503195009 30 352 3.2 9.7 0.00 0.00 0.00 30 1011.7
20260503194519 31 333 6.4 9.7 0.00 0.00 0.00 30 1011.7
20260503194007 31 293 0.0 11.3 0.00 0.00 0.00 31 1011.9
20260503193508 30 302 1.6 11.3 0.00 0.00 0.00 31 1011.9
20260503193026 30 291 1.6 4.8 0.00 0.00 0.00 30 1012.0
20260503192508 29 272 0.0 4.8 0.00 0.00 0.00 33 1012.1
20260503192008 28 332 1.6 4.8 0.00 0.00 0.00 33 1012.2
20260503191529 28 29 0.0 6.4 0.00 0.00 0.00 33 1012.2
20260503191009 29 338 3.2 6.4 0.00 0.00 0.00 34 1012.2
20260503190512 29 252 1.6 4.8 0.00 0.00 0.00 34 1012.3
20260503190034 28 352 1.6 3.2 0.00 0.00 0.00 34 1012.4
20260503185504 29 352 0.0 4.8 0.00 0.00 0.00 35 1012.5
20260503185009 28 5 0.0 4.8 0.00 0.00 0.00 36 1012.6
20260503184521 28 27 0.0 8.0 0.00 0.00 0.00 35 1012.7
20260503184011 27 316 1.6 6.4 0.00 0.00 0.00 36 1012.7
20260503183511 27 328 3.2 6.4 0.00 0.00 0.00 38 1012.8
20260503183024 27 333 3.2 6.4 0.00 0.00 0.00 37 1012.8
20260503182507 26 352 1.6 9.7 0.00 0.00 0.00 39 1012.8
20260503182010 26 119 0.0 11.3 0.00 0.00 0.00 39 1012.9
20260503181525 26 9 3.2 11.3 0.00 0.00 0.00 39 1012.9
20260503181010 25 309 1.6 6.4 0.00 0.00 0.00 40 1012.9
20260503180508 26 149 1.6 6.4 0.00 0.00 0.00 40 1012.9
20260503180030 26 69 0.0 4.8 0.00 0.00 0.00 41 1012.9
20260503175507 26 68 0.0 6.4 0.00 0.00 0.00 43 1013.0
20260503175013 25 320 0.0 6.4 0.00 0.00 0.00 42 1013.0
20260503174529 25 344 3.2 6.4 0.00 0.00 0.00 44 1013.1
20260503174010 25 352 0.0 3.2 0.00 0.00 0.00 44 1013.1
20260503173505 25 316 0.0 3.2 0.00 0.00 0.00 44 1013.2
20260503173020 25 321 0.0 3.2 0.00 0.00 0.00 46 1013.3
20260503172509 23 304 0.0 3.2 0.00 0.00 0.00 49 1013.2
20260503172013 23 282 0.0 4.8 0.00 0.00 0.00 48 1013.2
20260503171523 23 309 1.6 4.8 0.00 0.00 0.00 51 1013.2
20260503171008 23 348 0.0 3.2 0.00 0.00 0.00 53 1013.2
20260503170508 22 240 0.0 3.2 0.00 0.00 0.00 52 1013.2
20260503151008 16 107 0.0 0.0 0.00 0.00 0.00 78 1013.7
20260503150507 16 107 0.0 0.0 0.00 0.00 0.00 81 1013.7
20260503131007 10 26 0.0 0.0 0.00 0.00 0.00 90 1013.3
20260503130506 10 26 0.0 0.0 0.00 0.00 0.00 90 1013.2
20260503110506 11 109 0.0 0.0 0.00 0.00 0.00 90 1013.6
20260503090508 12 109 0.0 3.2 0.00 0.00 0.00 88 1014.0
20260503081542 13 188 0.0 3.2 0.00 0.00 0.00 87 1014.0
20260503081010 13 188 0.0 3.2 0.00 0.00 0.00 87 1014.1
20260503080512 13 189 0.0 3.2 0.00 0.00 0.00 87 1014.2
20260503072508 13 262 0.0 1.6 0.00 0.00 0.00 84 1014.2
20260503072006 13 262 0.0 3.2 0.00 0.00 0.00 85 1014.2
20260503071534 13 262 0.0 3.2 0.00 0.00 0.00 84 1014.2
20260503071013 14 280 0.0 0.0 0.00 0.00 0.00 85 1014.2
20260503070504 14 280 0.0 3.2 0.00 0.00 0.00 85 1014.2
20260503055003 15 229 0.0 3.2 0.00 0.00 0.00 80 1014.1
20260503054514 15 237 0.0 3.2 0.00 0.00 0.00 80 1014.0
20260503054006 15 149 0.0 3.2 0.00 0.00 0.00 81 1014.1
20260503053505 15 302 0.0 3.2 0.00 0.00 0.00 80 1013.9
20260503053019 15 218 0.0 3.2 0.00 0.00 0.00 80 1014.0
20260503052511 15 217 0.0 3.2 0.00 0.00 0.00 80 1014.1
20260503052010 15 335 0.0 3.2 0.00 0.00 0.00 79 1014.1
20260503051519 16 325 0.0 3.2 0.00 0.00 0.00 79 1014.1
20260503051006 16 360 0.0 3.2 0.00 0.00 0.00 78 1014.3
20260503050507 16 90 0.0 3.2 0.00 0.00 0.00 77 1014.6
20260503050024 16 44 0.0 3.2 0.00 0.00 0.00 77 1014.6
20260503045503 16 9 0.0 3.2 0.00 0.00 0.00 76 1014.4
20260503045005 16 9 0.0 3.2 0.00 0.00 0.00 77 1014.3
20260503044514 16 350 1.6 3.2 0.00 0.00 0.00 76 1014.2
20260503044005 16 312 0.0 3.2 0.00 0.00 0.00 76 1014.2
20260503043502 16 333 0.0 3.2 0.00 0.00 0.00 77 1014.1
20260503043014 16 346 0.0 3.2 0.00 0.00 0.00 77 1014.1
20260503042505 16 261 0.0 3.2 0.00 0.00 0.00 76 1014.2
20260503042010 16 237 0.0 3.2 0.00 0.00 0.00 76 1014.3
20260503041520 16 237 0.0 3.2 0.00 0.00 0.00 75 1014.4
20260503041005 17 237 0.0 0.0 0.00 0.00 0.00 74 1014.4
20260503040509 17 237 0.0 3.2 0.00 0.00 0.00 74 1014.4
20260503040022 17 237 0.0 3.2 0.00 0.00 0.00 74 1014.3
20260503035506 17 237 0.0 3.2 0.00 0.00 0.00 73 1014.2
20260503035014 17 237 0.0 3.2 0.00 0.00 0.00 73 1014.2
20260503034526 17 230 0.0 3.2 0.00 0.00 0.00 73 1014.1
20260503034003 17 352 0.0 3.2 0.00 0.00 0.00 72 1014.0
20260503033503 17 360 0.0 3.2 0.00 0.00 0.00 72 1014.0
20260503033011 17 231 0.0 4.8 0.00 0.00 0.00 72 1014.1
20260503032502 17 182 1.6 6.4 0.00 0.00 0.00 71 1013.8
20260503032005 18 5 1.6 6.4 0.00 0.00 0.00 71 1013.6
20260503031516 18 22 3.2 4.8 0.00 0.00 0.00 71 1013.9
20260503031006 18 189 1.6 3.2 0.00 0.00 0.00 71 1014.0
20260503030511 18 351 0.0 3.2 0.00 0.00 0.00 71 1013.8
20260503030019 18 265 0.0 3.2 0.00 0.00 0.00 71 1013.8
20260503025507 18 258 0.0 4.8 0.00 0.00 0.00 70 1013.8
20260503025006 18 210 1.6 11.3 0.00 0.00 0.00 69 1013.8
20260503024525 18 175 3.2 16.1 0.00 0.00 0.00 69 1013.7
20260503024010 18 153 3.2 16.1 0.00 0.00 0.00 69 1013.8
20260503023510 18 163 6.4 16.1 0.00 0.00 0.00 69 1013.8
20260503023007 18 200 6.4 22.5 0.00 0.00 0.00 69 1013.9
20260503022503 18 261 6.4 22.5 0.00 0.00 0.00 68 1013.8
20260503022010 19 101 8.0 19.3 0.00 0.00 0.00 67 1013.9
20260503021514 20 121 8.0 17.7 0.00 0.00 0.00 65 1013.8
20260503021006 20 190 8.0 17.7 0.00 0.00 0.00 64 1013.9
20260503020509 20 206 8.0 14.5 0.00 0.00 0.00 63 1013.8
20260503020018 21 186 3.2 9.7 0.00 0.00 0.00 62 1013.4
20260503015507 21 175 3.2 6.4 0.00 0.00 0.00 61 1013.2
20260503015005 21 155 1.6 4.8 0.00 0.00 0.00 59 1013.1
20260503014522 21 159 1.6 3.2 0.00 0.00 0.00 59 1013.1
20260503014010 21 180 1.6 3.2 0.00 0.00 0.00 59 1013.0
20260503013511 21 127 0.0 3.2 0.00 0.00 0.00 59 1013.0
20260503013035 21 184 0.0 3.2 0.00 0.00 0.00 59 1013.0
20260503012510 21 110 0.0 3.2 0.00 0.00 0.00 58 1013.0
20260503012016 21 136 0.0 3.2 0.00 0.00 0.00 58 1013.0
20260503011512 21 120 0.0 3.2 0.00 0.00 0.00 58 1012.9
20260503011004 21 101 0.0 3.2 0.00 0.00 0.00 59 1013.0
20260503010505 21 136 0.0 3.2 0.00 0.00 0.00 59 1013.0
20260503010016 21 117 1.6 3.2 0.00 0.00 0.00 57 1013.0
20260503005506 21 315 0.0 3.2 0.00 0.00 0.00 57 1013.0
20260503005007 21 311 0.0 3.2 0.00 0.00 0.00 59 1013.0
20260503004522 21 220 0.0 3.2 0.00 0.00 0.00 58 1013.0
20260503004005 21 288 1.6 3.2 0.00 0.00 0.00 57 1013.1
20260503003509 21 291 0.0 4.8 0.00 0.00 0.00 57 1013.0
20260503003025 21 344 0.0 4.8 0.00 0.00 0.00 58 1013.1
20260503002515 21 317 0.0 4.8 0.00 0.00 0.00 59 1013.1
20260503002012 21 215 1.6 4.8 0.00 0.00 0.00 58 1013.2
20260503001527 21 299 1.6 4.8 0.00 0.00 0.00 58 1013.2
20260503001017 21 351 0.0 4.8 0.00 0.00 0.00 57 1013.2
20260503000505 21 332 0.0 4.8 0.00 0.00 0.00 57 1013.3
20260503000015 21 241 1.6 6.4 0.00 0.00 0.00 57 1013.3
20260502235507 21 321 1.6 6.4 0.00 0.00 0.00 57 1013.3
20260502235006 21 334 1.6 6.4 0.00 0.00 0.00 57 1013.3
20260502234520 21 352 3.2 6.4 0.00 0.00 0.00 57 1013.4
20260502234011 21 32 1.6 4.8 0.00 0.00 0.00 57 1013.4
20260502233508 21 307 0.0 9.7 0.00 0.00 0.00 56 1013.4
20260502233022 21 312 0.0 9.7 0.00 0.00 0.00 57 1013.5
20260502232513 21 5 1.6 8.0 0.00 0.00 0.00 57 1013.6
20260502232009 21 236 3.2 8.0 0.00 0.00 0.00 56 1013.6
20260502231529 21 12 1.6 9.7 0.00 0.00 0.00 55 1013.6
20260502231012 22 345 3.2 9.7 0.00 0.00 0.00 54 1013.7
20260502230511 22 305 3.2 6.4 0.00 0.00 0.00 53 1013.7
20260502230028 22 281 0.0 6.4 0.00 0.00 0.00 54 1013.7
20260502225510 21 111 1.6 6.4 0.00 0.00 0.00 54 1013.8
20260502225005 22 324 3.2 6.4 0.00 0.00 0.00 54 1013.9
20260502224515 21 351 1.6 6.4 0.00 0.00 0.00 56 1014.0
20260502224007 21 308 1.6 6.4 0.00 0.00 0.00 56 1014.1
20260502223511 20 337 0.0 6.4 0.00 0.00 0.00 57 1014.2
20260502223021 21 331 3.2 4.8 0.00 0.00 0.00 57 1014.3
20260502222507 20 300 0.0 4.8 0.00 0.00 0.00 58 1014.3
20260502222009 20 310 1.6 4.8 0.00 0.00 0.00 56 1014.4
20260502221532 21 344 1.6 6.4 0.00 0.00 0.00 55 1014.3
20260502221008 20 10 0.0 6.4 0.00 0.00 0.00 58 1014.4
20260502220512 20 9 1.6 4.8 0.00 0.00 0.00 58 1014.6
20260502220026 20 135 0.0 4.8 0.00 0.00 0.00 59 1014.7
20260502215509 19 192 1.6 6.4 0.00 0.00 0.00 60 1014.8
20260502215012 19 179 1.6 6.4 0.00 0.00 0.00 60 1014.8
20260502214528 19 306 1.6 8.0 0.00 0.00 0.00 60 1014.9
20260502214014 19 295 1.6 8.0 0.00 0.00 0.00 58 1015.1
20260502213507 19 258 3.2 6.4 0.00 0.00 0.00 61 1015.1
20260502213019 19 352 3.2 8.0 0.00 0.00 0.00 62 1015.1
20260502212507 18 84 1.6 8.0 0.00 0.00 0.00 62 1015.3
20260502212011 18 5 3.2 8.0 0.00 0.00 0.00 62 1015.4
20260502211524 18 129 3.2 8.0 0.00 0.00 0.00 62 1015.5
20260502211008 18 201 3.2 8.0 0.00 0.00 0.00 62 1015.5
20260502210509 18 161 1.6 6.4 0.00 0.00 0.00 63 1015.6
20260502210029 18 321 1.6 6.4 0.00 0.00 0.00 63 1015.6
20260502205509 18 360 3.2 6.4 0.00 0.00 0.00 62 1015.7
20260502205013 18 339 3.2 8.0 0.00 0.00 0.00 63 1015.7
20260502204529 17 283 3.2 8.0 0.00 0.00 0.00 66 1015.8
20260502204011 17 331 1.6 6.4 0.00 0.00 0.00 69 1015.9